THY65X LJLJ-LTFM

Flight info

Callsign THY65X
Flight time N/A
Altitude 37000
Route MODRO1Z MODRO DCT NEMEK DCT MITNO DCT NISVA DCT DEDIN L614 GERGI T391 AYTEK
Aircraft A321/M-SDE3FGHIRWY/LB1

Departure

Time 2026-04-24 15:32
Airport Ljubljana Jože Pučnik Airport (LJLJ)

Arrival

Time N/A
Airport İstanbul Airport (LTFM)
Time Latitude Longitude Altitude Speed Heading
2026-04-24 15:27 46.21624 14.47600 1197 ft 0 kts 209°
2026-04-24 15:28 46.21550 14.47362 1201 ft 12 kts 306°
2026-04-24 15:29 46.21567 14.47329 1203 ft 0 kts 306°
2026-04-24 15:30 46.21569 14.47323 1203 ft 2 kts 306°
2026-04-24 15:31 46.22683 14.45152 1274 ft 173 kts 306°
2026-04-24 15:32 46.25533 14.39011 4291 ft 164 kts 271°
2026-04-24 15:33 46.22259 14.36631 6010 ft 193 kts 158°
2026-04-24 15:33 46.20090 14.37648 6764 ft 202 kts 168°
2026-04-24 15:34 46.17236 14.38603 7579 ft 220 kts 168°
2026-04-24 15:35 46.12430 14.38582 8715 ft 248 kts 189°
2026-04-24 15:35 46.08969 14.38026 9591 ft 254 kts 184°
2026-04-24 15:35 46.07217 14.37866 10057 ft 257 kts 183°
2026-04-24 15:36 46.05409 14.37859 10513 ft 267 kts 168°
2026-04-24 15:36 46.02436 14.41356 10910 ft 302 kts 118°
2026-04-24 15:36 46.02004 14.42404 10988 ft 310 kts 116°
2026-04-24 15:37 46.01117 14.44764 11122 ft 329 kts 115°
2026-04-24 15:37 45.99985 14.47752 11397 ft 347 kts 117°
2026-04-24 15:38 45.98738 14.50741 11990 ft 354 kts 120°
2026-04-24 15:38 45.97366 14.53715 12658 ft 358 kts 122°
2026-04-24 15:38 45.95887 14.56684 13355 ft 362 kts 123°
2026-04-24 15:38 45.94368 14.59604 14029 ft 366 kts 124°
2026-04-24 15:39 45.92873 14.62427 14608 ft 368 kts 124°
2026-04-24 15:39 45.91270 14.65449 15273 ft 370 kts 124°
2026-04-24 15:39 45.89711 14.68403 15938 ft 372 kts 123°
2026-04-24 15:39 45.88146 14.71386 16611 ft 374 kts 123°
2026-04-24 15:40 45.86579 14.74390 17277 ft 376 kts 122°
2026-04-24 15:40 45.84986 14.77455 17929 ft 378 kts 122°
2026-04-24 15:40 45.83427 14.80458 18535 ft 381 kts 122°
2026-04-24 15:40 45.81840 14.83513 19061 ft 384 kts 122°
2026-04-24 15:41 45.80225 14.86617 19578 ft 387 kts 122°
2026-04-24 15:41 45.78602 14.89729 20091 ft 390 kts 122°
2026-04-24 15:41 45.76972 14.92846 20617 ft 393 kts 122°
2026-04-24 15:41 45.75321 14.95993 21123 ft 397 kts 122°
2026-04-24 15:42 45.73655 14.99160 21628 ft 400 kts 122°
2026-04-24 15:42 45.71973 15.02354 22138 ft 404 kts 122°
2026-04-24 15:42 45.70278 15.05569 22660 ft 407 kts 122°
2026-04-24 15:42 45.68563 15.08819 23143 ft 411 kts 122°
2026-04-24 15:43 45.66806 15.12147 23628 ft 414 kts 122°
2026-04-24 15:43 45.65091 15.15401 24027 ft 417 kts 122°
2026-04-24 15:43 45.63313 15.18770 24431 ft 419 kts 122°
2026-04-24 15:43 45.61542 15.22116 24836 ft 422 kts 122°
2026-04-24 15:44 45.59779 15.25441 25237 ft 424 kts 122°
2026-04-24 15:44 45.58019 15.28761 25633 ft 425 kts 122°
2026-04-24 15:44 45.56385 15.32327 26015 ft 424 kts 117°
2026-04-24 15:44 45.54854 15.35925 26417 ft 426 kts 117°
2026-04-24 15:45 45.53309 15.39555 26812 ft 428 kts 117°
2026-04-24 15:45 45.51762 15.43181 27184 ft 430 kts 117°
2026-04-24 15:45 45.50194 15.46843 27548 ft 433 kts 117°
2026-04-24 15:45 45.48653 15.50432 27910 ft 435 kts 117°
2026-04-24 15:46 45.47020 15.54231 28291 ft 437 kts 117°
2026-04-24 15:46 45.45447 15.57891 28656 ft 439 kts 117°
2026-04-24 15:46 45.43850 15.61605 29001 ft 441 kts 117°
2026-04-24 15:46 45.42247 15.65324 29360 ft 443 kts 117°
2026-04-24 15:47 45.40629 15.69073 29728 ft 445 kts 117°
2026-04-24 15:47 45.39011 15.72820 30069 ft 447 kts 117°
2026-04-24 15:47 45.37388 15.76575 30363 ft 449 kts 117°
2026-04-24 15:47 45.35754 15.80347 30646 ft 451 kts 117°
2026-04-24 15:48 45.34022 15.84341 30956 ft 453 kts 117°
2026-04-24 15:48 45.32432 15.88001 31245 ft 454 kts 117°
2026-04-24 15:48 45.30764 15.91829 31654 ft 452 kts 117°
2026-04-24 15:48 45.29099 15.95641 32077 ft 451 kts 116°
2026-04-24 15:49 45.27453 15.99406 32484 ft 450 kts 116°
2026-04-24 15:49 45.25795 16.03198 32918 ft 449 kts 116°
2026-04-24 15:49 45.24144 16.06983 33304 ft 448 kts 116°
2026-04-24 15:49 45.22496 16.10754 33688 ft 447 kts 116°
2026-04-24 15:50 45.20841 16.14526 34085 ft 446 kts 116°
2026-04-24 15:50 45.19194 16.18270 34422 ft 445 kts 116°
2026-04-24 15:50 45.17540 16.22026 34728 ft 444 kts 116°
2026-04-24 15:50 45.15896 16.25762 35032 ft 444 kts 116°
2026-04-24 15:51 45.14272 16.29449 35335 ft 443 kts 116°
2026-04-24 15:51 45.12631 16.33167 35629 ft 443 kts 116°
2026-04-24 15:51 45.11002 16.36848 35932 ft 443 kts 116°
2026-04-24 15:51 45.09372 16.40530 36216 ft 443 kts 116°
2026-04-24 15:52 45.07708 16.44289 36509 ft 442 kts 116°
2026-04-24 15:52 45.06073 16.47981 36760 ft 442 kts 116°
2026-04-24 15:52 45.04441 16.51663 37017 ft 442 kts 116°
2026-04-24 15:52 45.02783 16.55395 37147 ft 443 kts 116°
2026-04-24 15:53 44.99512 16.62723 37160 ft 442 kts 116°
2026-04-24 15:53 44.96223 16.70068 37157 ft 441 kts 116°
2026-04-24 15:54 44.93385 16.76398 37160 ft 441 kts 116°
2026-04-24 15:54 44.90098 16.83723 37163 ft 441 kts 116°
2026-04-24 15:55 44.86781 16.91088 37165 ft 442 kts 116°
2026-04-24 15:55 44.83502 16.98363 37185 ft 442 kts 116°
2026-04-24 15:56 44.80181 17.05702 37180 ft 443 kts 117°
2026-04-24 15:56 44.76855 17.13022 37179 ft 443 kts 117°
2026-04-24 15:57 44.73535 17.20318 37176 ft 443 kts 117°
2026-04-24 15:57 44.70197 17.27630 37190 ft 444 kts 117°
2026-04-24 15:58 44.66834 17.34980 37176 ft 444 kts 117°
2026-04-24 15:58 44.63513 17.42228 37170 ft 444 kts 117°
2026-04-24 15:59 44.60153 17.49556 37170 ft 445 kts 117°
2026-04-24 15:59 44.56774 17.56895 37167 ft 444 kts 117°
2026-04-24 16:00 44.53388 17.64211 37178 ft 445 kts 117°
2026-04-24 16:00 44.50028 17.71458 37152 ft 445 kts 117°
2026-04-24 16:01 44.46650 17.78739 37166 ft 445 kts 117°
2026-04-24 16:01 44.43274 17.85995 37168 ft 445 kts 117°
2026-04-24 16:02 44.39875 17.93270 37167 ft 446 kts 118°
2026-04-24 16:02 44.36468 18.00559 37160 ft 446 kts 118°
2026-04-24 16:03 44.33062 18.07831 37156 ft 446 kts 118°
2026-04-24 16:03 44.29638 18.15123 37163 ft 447 kts 118°
2026-04-24 16:04 44.26249 18.22317 37174 ft 447 kts 118°
2026-04-24 16:04 44.22801 18.29613 37168 ft 448 kts 118°
2026-04-24 16:05 44.17647 18.40482 37166 ft 448 kts 118°
2026-04-24 16:06 44.12492 18.51323 37158 ft 448 kts 118°
2026-04-24 16:07 44.07299 18.62189 37158 ft 448 kts 118°
2026-04-24 16:07 44.02124 18.73001 37155 ft 448 kts 118°
2026-04-24 16:08 43.96908 18.83837 37162 ft 449 kts 119°
2026-04-24 16:09 43.91686 18.94637 37153 ft 449 kts 119°
2026-04-24 16:09 43.88202 19.01843 37149 ft 450 kts 119°
2026-04-24 16:11 43.79448 19.19825 37151 ft 450 kts 119°
2026-04-24 16:11 43.76659 19.27433 37144 ft 439 kts 103°
2026-04-24 16:12 43.74125 19.39647 37156 ft 438 kts 101°
2026-04-24 16:13 43.71589 19.51777 37137 ft 439 kts 101°
2026-04-24 16:14 43.68174 19.68025 37129 ft 439 kts 102°
2026-04-24 16:14 43.65883 19.78824 37139 ft 439 kts 102°
2026-04-24 16:15 43.63281 19.91054 37130 ft 439 kts 102°
2026-04-24 16:16 43.60678 20.03188 37123 ft 439 kts 102°
2026-04-24 16:17 43.56288 20.23489 37104 ft 440 kts 102°
2026-04-24 16:18 43.52766 20.39710 37113 ft 441 kts 102°
2026-04-24 16:19 43.50094 20.51892 37097 ft 442 kts 102°
2026-04-24 16:20 43.47409 20.64037 37093 ft 442 kts 102°
2026-04-24 16:20 43.44715 20.76193 37101 ft 443 kts 102°
2026-04-24 16:21 43.41994 20.88391 37085 ft 443 kts 102°
2026-04-24 16:22 43.40182 20.96490 37089 ft 443 kts 103°
2026-04-24 16:22 43.37452 21.08621 37091 ft 443 kts 103°
2026-04-24 16:23 43.35619 21.16713 37084 ft 443 kts 103°
2026-04-24 16:24 43.32858 21.28851 37087 ft 443 kts 103°
2026-04-24 16:24 43.31005 21.36972 37086 ft 443 kts 103°
2026-04-24 16:25 43.29157 21.45053 37096 ft 443 kts 103°
2026-04-24 16:25 43.27290 21.53177 37093 ft 444 kts 103°
2026-04-24 16:26 43.24477 21.65330 37101 ft 444 kts 103°
2026-04-24 16:27 43.21672 21.77422 37101 ft 444 kts 103°
2026-04-24 16:27 43.19791 21.85466 37103 ft 444 kts 103°
2026-04-24 16:28 43.17914 21.93471 37099 ft 444 kts 103°
2026-04-24 16:28 43.15067 22.05585 37107 ft 444 kts 103°
2026-04-24 16:29 43.13161 22.13664 37096 ft 444 kts 103°
2026-04-24 16:30 43.09341 22.29726 37076 ft 445 kts 104°
2026-04-24 16:30 43.07409 22.37794 37092 ft 446 kts 104°
2026-04-24 16:31 43.05475 22.45892 37077 ft 446 kts 104°
2026-04-24 16:31 43.03539 22.53949 37075 ft 446 kts 104°
2026-04-24 16:32 43.01587 22.62006 37068 ft 446 kts 104°
2026-04-24 16:32 42.99625 22.70116 37078 ft 446 kts 104°
2026-04-24 16:33 42.97681 22.78113 37067 ft 447 kts 104°
2026-04-24 16:33 42.95555 22.86166 37062 ft 448 kts 107°
2026-04-24 16:34 42.93220 22.94046 37059 ft 449 kts 108°
2026-04-24 16:34 42.91234 23.00657 37072 ft 449 kts 108°
2026-04-24 16:35 42.88915 23.08570 37063 ft 449 kts 107°
2026-04-24 16:35 42.86624 23.16489 37063 ft 449 kts 107°
2026-04-24 16:36 42.84311 23.24424 37071 ft 449 kts 108°
2026-04-24 16:36 42.81961 23.32404 37082 ft 450 kts 108°
2026-04-24 16:37 42.79633 23.40316 37081 ft 450 kts 108°
2026-04-24 16:37 42.77294 23.48228 37053 ft 450 kts 108°
2026-04-24 16:38 42.74945 23.56139 37059 ft 451 kts 108°
2026-04-24 16:38 42.72595 23.64043 37059 ft 451 kts 108°
2026-04-24 16:39 42.70238 23.71941 37059 ft 451 kts 108°
2026-04-24 16:39 42.67868 23.79878 37055 ft 451 kts 108°
2026-04-24 16:40 42.65506 23.87764 37061 ft 451 kts 108°
2026-04-24 16:40 42.63133 23.95645 37058 ft 451 kts 109°
2026-04-24 16:41 42.60725 24.03611 37047 ft 450 kts 109°
2026-04-24 16:41 42.58374 24.11452 37058 ft 450 kts 108°
2026-04-24 16:42 42.56156 24.19430 37053 ft 449 kts 107°
2026-04-24 16:42 42.54001 24.27388 37036 ft 450 kts 108°
2026-04-24 16:43 42.51796 24.35397 37034 ft 450 kts 108°
2026-04-24 16:43 42.49588 24.43273 37036 ft 450 kts 108°
2026-04-24 16:44 42.47348 24.51202 37034 ft 450 kts 108°
2026-04-24 16:44 42.45096 24.59167 37034 ft 451 kts 108°
2026-04-24 16:45 42.42841 24.67164 37029 ft 452 kts 108°
2026-04-24 16:45 42.40590 24.75105 37030 ft 452 kts 108°
2026-04-24 16:46 42.38326 24.83045 37025 ft 452 kts 109°
2026-04-24 16:46 42.36058 24.90980 37022 ft 452 kts 109°
2026-04-24 16:47 42.33774 24.98953 37027 ft 452 kts 109°
2026-04-24 16:47 42.31498 25.06881 37027 ft 452 kts 109°
2026-04-24 16:48 42.29214 25.14804 37032 ft 453 kts 109°
2026-04-24 16:48 42.26906 25.22786 37025 ft 453 kts 109°
2026-04-24 16:49 42.24607 25.30698 37019 ft 453 kts 109°
2026-04-24 16:49 42.22291 25.38666 37027 ft 454 kts 109°
2026-04-24 16:50 42.19979 25.46588 37027 ft 454 kts 109°
2026-04-24 16:50 42.17389 25.54369 37024 ft 457 kts 118°
2026-04-24 16:51 42.14123 25.61745 37025 ft 457 kts 118°
2026-04-24 16:51 42.10844 25.69153 37026 ft 457 kts 118°
2026-04-24 16:52 42.07579 25.76502 37034 ft 458 kts 119°
2026-04-24 16:52 42.04278 25.83914 37030 ft 459 kts 119°
2026-04-24 16:53 42.01002 25.91268 37026 ft 460 kts 119°
2026-04-24 16:53 41.98227 25.97487 37037 ft 460 kts 119°
2026-04-24 16:54 41.94920 26.04870 37031 ft 461 kts 119°
2026-04-24 16:54 41.91593 26.12298 37039 ft 461 kts 119°
2026-04-24 16:55 41.88269 26.19683 37034 ft 462 kts 119°
2026-04-24 16:55 41.84914 26.27111 37046 ft 462 kts 120°
2026-04-24 16:56 41.81699 26.34632 37014 ft 462 kts 116°
2026-04-24 16:56 41.79128 26.42558 37022 ft 460 kts 109°
2026-04-24 16:57 41.76827 26.50541 37031 ft 460 kts 108°
2026-04-24 16:57 41.75701 26.54625 36882 ft 460 kts 108°
2026-04-24 16:57 41.74367 26.58558 35920 ft 461 kts 119°
2026-04-24 16:58 41.72644 26.62195 34884 ft 459 kts 121°
2026-04-24 16:58 41.71023 26.65476 34061 ft 453 kts 122°
2026-04-24 16:58 41.69155 26.69194 33005 ft 445 kts 122°
2026-04-24 16:58 41.67410 26.72647 32061 ft 437 kts 122°
2026-04-24 16:59 41.65733 26.75986 31158 ft 429 kts 120°
2026-04-24 16:59 41.64403 26.79492 30294 ft 417 kts 107°
2026-04-24 16:59 41.63491 26.86877 28338 ft 395 kts 88°
2026-04-24 17:00 41.63460 26.90570 27359 ft 390 kts 88°
2026-04-24 17:00 41.63367 26.97744 25618 ft 379 kts 88°
2026-04-24 17:00 41.63314 27.01227 24780 ft 374 kts 88°
2026-04-24 17:01 41.63211 27.08124 23049 ft 364 kts 88°
2026-04-24 17:01 41.63162 27.11470 22092 ft 359 kts 88°
2026-04-24 17:02 41.63067 27.18142 20223 ft 352 kts 88°
2026-04-24 17:02 41.63022 27.21386 19409 ft 347 kts 88°
2026-04-24 17:02 41.62974 27.24578 19004 ft 343 kts 88°
2026-04-24 17:02 41.62926 27.27772 18567 ft 344 kts 88°
2026-04-24 17:03 41.62831 27.34220 17649 ft 343 kts 88°
2026-04-24 17:03 41.62781 27.37391 17220 ft 340 kts 88°
2026-04-24 17:03 41.62729 27.40495 16800 ft 338 kts 88°
2026-04-24 17:04 41.62675 27.43662 16372 ft 335 kts 88°
2026-04-24 17:04 41.62564 27.49840 15536 ft 330 kts 88°
2026-04-24 17:04 41.62465 27.52870 15275 ft 325 kts 90°
2026-04-24 17:05 41.62313 27.55866 15024 ft 322 kts 91°
2026-04-24 17:05 41.62137 27.58879 14776 ft 320 kts 91°
2026-04-24 17:05 41.61801 27.64829 14286 ft 317 kts 91°
2026-04-24 17:06 41.61634 27.67761 14050 ft 315 kts 91°
2026-04-24 17:06 41.61294 27.73592 13536 ft 311 kts 91°
2026-04-24 17:06 41.61123 27.76481 13257 ft 310 kts 91°
2026-04-24 17:07 41.61011 27.78380 13094 ft 310 kts 91°
2026-04-24 17:07 41.60804 27.81885 12767 ft 308 kts 92°
2026-04-24 17:07 41.60496 27.87087 12283 ft 306 kts 92°
2026-04-24 17:08 41.60158 27.92729 11718 ft 298 kts 92°
2026-04-24 17:08 41.59990 27.95475 11366 ft 296 kts 92°
2026-04-24 17:08 41.59824 27.98217 11006 ft 294 kts 92°
2026-04-24 17:09 41.59497 28.03616 10303 ft 290 kts 92°
2026-04-24 17:09 41.59162 28.09004 9564 ft 288 kts 92°
2026-04-24 17:10 41.58996 28.11660 9213 ft 285 kts 92°
2026-04-24 17:10 41.58508 28.19531 8171 ft 279 kts 94°
2026-04-24 17:11 41.58024 28.27267 7143 ft 275 kts 94°
2026-04-24 17:12 41.57220 28.39872 5439 ft 268 kts 94°